Location: Anuling
(14.1239°N, 120.8922°E)
Time: 04:53:56
(UTC+00:00)

Cosmos 2297 - Pass Details

Date: 14 January 2026
Orbit: 836 x 856 km, 71.0° (Epoch: 10 February)

Event Time Altitude Azimuth Distance (km) Brightness Sun altitude
Rises 10:22:16 0° 337° (NNW) 3,391 6.9 -8.9°
Reaches altitude 10° 10:24:44 10° 333° (NNW) 2,459 6.2 -9.5°
Maximum altitude 10:30:15 58° 255° (WSW) 983 4.5 -10.7°
Drops below altitude 10° 10:35:49 10° 177° (S) 2,470 6.3 -12.0°
Sets 10:38:18 0° 173° (S) 3,408 7.0 -12.6°
